Showing default

GEESAT 2-08, 58912

Orbit data source: Space-Track

GEESAT 2-08, 58912 is a payload satellite owned by GeeSpace (CN) in LEO that was launched on Fri, 02 Feb 2024 UTC via a CHANG ZHENG 2C launch vehicle from the Xichang Space Center, China (XSC). Payload-class satellites include a variety of spacecraft equipped with specific instruments for various scientific and technological missions. These include communications satellites like Starlink; space stations such as the ISS; scientific satellites like the Hubble; Earth observation satellites from companies like Planet Labs, Umbra, and HawkEye 360; GPS; miniature CubeSats for education and research; and military/defense satellites.

Loading next visibility...
Identifier
58912, 2024-023H
Orbit
LEO
Last TLE update
6 hours ago
Origin
Manufacturer
Taizhou Xingkong
Mission
Operational Commercial Navigation
Bus & Motor
GEESAT1, Unknown motor
Mass
130 kg wet, 130 kg dry
Launch date (UTC)
2024-02-02 (1 year ago)
Launch vehicle
CHANG ZHENG 2C
Launch site
Xichang Space Center, China (XSC)
Object type
Payload
Rocket body
Debris
Shape & HBR
Box + 2 Pan, 2 m
Radar Cross Section
0.833 m², Medium (>0.1 m² and < 1m²)

Expand to show TLE details & history

TLE from 6 hours ago
0 GEESAT 2-08
1 58912U 24023H   25184.23633261  .00002583  00000-0  26624-3 0  9993
2 58912  49.9875 175.9617 0006730 272.9184  87.0988 14.93420705 77036
Epoch: 2025-07-03T05:40Z
TLE epoch observation values (Epoch: 2025-07-03T05:40:19.137Z)
Latitude
-0.00002°
Longitude
169.37597°
Altitude
587.59 km
Speed
7.568 km/s
True Right ascension
11h 43m 50s
True Declination
0° 00' 00"
Sunlit
Object was in daylight at epoch
Visualization orbit readout
Latitude
-31.27625°
Longitude
137.67857°
Altitude
593.182 km
Speed
7.565 km/s
Apparent Right ascension
10h 32m 46s
Apparent Declination
-36° 13' 30"
Sunlit
Object is in daylight
Visualization observer readout
Local Sidereal Time
23:40:56
Azimuth
80.009° E
Elevation
-76.11°
Doppler factor
1
Orbital elements
Apogee altitude
592.731 km
Perigee altitude
583.354 km
Semi-major axis
6,966.18 km
Eccentricity
0.00067
Inclination
49.9875°
RAAN
175.9617°
Arg. of periapsis
272.9184°
True anomaly
Unknown
Mean anomaly
87.0988°
Eccentric anomaly
Unknown
Mean motion
3.73294 °/min
Orbital period
96.44 mins
BSTAR
0.00026624
Loading maneuver chart data...
Loading SW <> Apogee altitude chart data...
Loading historical data...
Loading historical data...
Loading historical data...
Loading historical data...
Loading historical data...
Loading historical data...
Loading historical data...

GEESAT 2-08 Visibility forecast

Observer location: undefined°, undefined°

Span
Click to sort rows by Start time (UTC) header in descending order
Start Az.
Max El. time (UTC)
Max El. Az.
Max El.
End time (UTC)
End Az.
6 mins2025-07-04 01:05:22.144Z175.663° S2025-07-04 01:08:22.144Z130.613° SE18.164°2025-07-04 01:11:22.144Z86.41° E
7 mins2025-07-04 02:45:22.144Z242.925° WSW2025-07-04 02:48:22.144Z291.031° WNW43.546°2025-07-04 02:52:22.144Z52.594° ENE
6 mins2025-07-04 04:27:22.144Z300.184° NW2025-07-04 04:29:22.144Z334.961° NNW23.133°2025-07-04 04:33:22.144Z42.668° NE
5 mins2025-07-04 06:09:22.144Z327.404° NNW2025-07-04 06:11:22.144Z2.294° NNE21.028°2025-07-04 06:14:22.144Z53.583° ENE
6 mins2025-07-04 07:50:22.144Z319.479° NNW2025-07-04 07:53:22.144Z42.451° NE36.834°2025-07-04 07:56:22.144Z99.365° ESE
6 mins2025-07-04 09:31:22.144Z273.649° WNW2025-07-04 09:33:22.144Z232.482° WSW27.915°2025-07-04 09:37:22.144Z161.984° S
|